Regional Weather Roundup
Issued by NWS Sioux Falls, SD

Home | Current Version | Previous Version | Graphics & Text | Print | Product List | Glossary Off
Versions: 1 2 3 4 5 6 7 8 9 10 11 12 13 14 15 16 17 18 19 20 21 22 23 24 25 26 27 28 29 30 31 32 33 34 35 36 37 38 39 40 41 42 43 44 45 46 47 48 49 50

000
ASUS43 KFSD 020802
RWRFSD

WEATHER ROUNDUP FOR SE SOUTH DAKOTA/SW MINNESOTA/NW IOWA
NATIONAL WEATHER SERVICE SIOUX FALLS SD
300 AM CDT SUN AUG 02 2015

NOTE: "FAIR" INDICATES FEW OR NO CLOUDS BELOW 12,000 FEET WITH NO
SIGNIFICANT WEATHER AND OR OBSTRUCTIONS TO VISIBILITY.


SDZ038>040-050-052>070-020900-
SOUTHEAST SOUTH DAKOTA

CITY           SKY/WX    TMP DP  RH WIND       PRES   REMARKS
BROOKINGS      CLEAR     66  59  77 S13       29.77F
CHAMBERLAIN    NOT AVBL
HURON          CLEAR     69  61  75 SW7       29.73F
MADISON        FAIR      68  63  83 SW9       29.79S
MITCHELL       CLEAR     69  61  75 SW9       29.77F
SIOUX FALLS    CLEAR     70  61  73 SW8       29.78F
WINNER         FAIR      72  60  66 SW12      29.82F
YANKTON        CLEAR     70  61  73 S8        29.80F
$$

MNZ071-072-080-081-089-090-097-098-020900-
SOUTHWEST MINNESOTA

CITY           SKY/WX    TMP DP  RH WIND       PRES   REMARKS
FAIRMONT       PTCLDY    73  61  64 SW12G17   29.79S
JACKSON        PTCLDY    70  64  83 SW12      29.81F
LUVERNE        CLEAR     64  63  94 S5        29.80F
MARSHALL       CLEAR     72  61  68 SW17      29.74F
MONTEVIDEO     CLEAR     66  61  82 SW9       29.69F
PIPESTONE      CLEAR     66  63  88 SW7       29.79F
REDWOOD FALLS  CLEAR     71  65  81 SW12      29.71F
TRACY          CLEAR     72  66  83 SW14      29.76F
WINDOM         CLEAR     72  63  73 SW12G17   29.78F
WORTHINGTON    CLEAR     70  61  73 SW12      29.81F
$$

IAZ001>003-012>014-020>022-031-032-NEZ013-014-SDZ071-020900-
NORTHWEST IOWA

CITY           SKY/WX    TMP DP  RH WIND       PRES   REMARKS
DENISON        CLEAR     72  68  88 S8G17     29.85F
ESTHERVILLE    PTCLDY    70  66  87 SW12G23   29.81F
SIOUX CITY     CLOUDY    70  65  84 N6        29.84F
SPENCER        PTCLDY    70  65  84 SW8       29.83F
$$

ABBREVIATIONS USED IN REMARKS
   TC - TEMPERATURE IN CELSIUS
  WCI - WIND CHILL INDEX
   HX - HEAT INDEX
  VSB - VISIBILITY



USA.gov is the U.S. government's official web portal to all federal, state and local government web resources and services.